Tracking 35055 objects as of 18-Aug-2026
HD Live streaming from Space Station
objects crossing your sky now

STARLINK-3582

Track STARLINK-3582 now!
10-day predictions
STARLINK-3582 is classified as:


NORAD ID: 51873
Int'l Code: 2022-022X
Launch date: March 3, 2022
Source: United States (US)
Launch site: AIR FORCE EASTERN TEST RANGE (AFETR)
Your satellite tracking list
Your tracking list is empty




NASA's NSSDC Master Catalog

Two Line Element Set (TLE):
1 51873U 22022X   26229.70333922  .00017094  00000-0  67940-3 0  9992
2 51873  53.2010 348.0659 0004165  24.2342 335.8853 15.25420617247680
Source of the keplerian elements: AFSPC